Location: Fort Wayne
(41.1310°N, 85.1290°W)
Time: 10:03:31
(UTC-04:00)

Vanguard 3 - Visible Passes

Search period start: 21 August 2014 00:00
Search period end: 31 August 2014 00:00
Orbit: 508 x 3278 km, 33.3° (Epoch: 20 August)

Date Brightness Start Highest point End Pass type
(mag) Time Alt. Az. Time Alt. Az. Time Alt. Az.
21 Aug 7.9 22:40:00 10° WSW 22:48:44 45° S 22:49:40 42° SSE visible
22 Aug 8.5 21:25:37 10° WSW 21:36:48 51° S 21:41:49 18° ESE visible
22 Aug 8.9 23:41:39 10° W 23:46:34 28° SW 23:46:34 28° SW visible
23 Aug 8.1 22:27:23 10° W 22:36:58 46° SSW 22:38:41 39° SSE visible
24 Aug 8.7 21:12:41 10° WSW 21:24:56 54° S 21:30:48 16° ESE visible
24 Aug 8.8 23:29:17 10° W 23:35:32 30° SW 23:35:32 30° SW visible
25 Aug 8.3 22:14:41 10° W 22:25:07 46° SSW 22:27:38 34° SSE visible
26 Aug 10.0 00:31:54 10° WSW 00:32:22 11° WSW 00:32:22 11° WSW visible
26 Aug 8.9 20:59:44 10° W 21:12:58 55° S 21:19:44 14° ESE visible
26 Aug 8.9 23:16:50 10° W 23:24:28 30° SW 23:24:28 30° SW visible
27 Aug 8.6 22:01:56 10° W 22:13:11 45° SSW 22:16:34 30° SSE visible
28 Aug 10.0 00:20:04 10° WSW 00:21:18 12° WSW 00:21:18 12° WSW visible
28 Aug 9.1 20:46:44 10° W 21:00:55 56° S 21:08:39 11° ESE visible
28 Aug 9.0 23:04:21 10° W 23:12:47 28° SW 23:13:23 28° SSW visible
29 Aug 8.9 21:49:06 10° W 22:01:08 44° SSW 22:05:29 25° SSE visible
30 Aug 10.0 00:08:21 10° WSW 00:10:14 12° WSW 00:10:14 12° WSW visible
30 Aug 9.3 20:33:42 10° W 20:48:46 56° SSW 20:57:24 10° ESE visible
30 Aug 9.3 22:51:49 10° W 23:00:38 27° SW 23:02:20 25° SSW visible
